Weather History for Mobridge, SD

Change the Weather History Date:

Thursday, November 29, 2012

  Actual Average Record
Temperature  
Mean Temperature 20 °F 24 °F  
Max Temperature 24 °F 35 °F 60 °F (1939)
Min Temperature 15 °F 14 °F -13 °F (1985)
Degree Days  
Heating Degree Days 45 41  
Month to date heating degree days 955 951  
Since 1 July heating degree days 1712 1725  
Cooling Degree Days 0 0  
Month to date cooling degree days 0 0  
Year to date cooling degree days 866 644  
Moisture  
Dew Point 19 °F    
Average Humidity 91    
Maximum Humidity 100    
Minimum Humidity 81    
Precipitation  
Precipitation 0.00 in 0.01 in 0.07 in (1940)
Month to date precipitation 0.36 0.48  
Year to date precipitation 13.17 17.43  
Snow  
Snow 0.00 in - - ()
Month to date snowfall 0.5  
Since 1 July snowfall 0.5  
Snow Depth 0.00 in    
Sea Level Pressure  
Sea Level Pressure 30.03 in    
Wind  
Wind Speed 7 mph (East)    
Max Wind Speed 14 mph    
Max Gust Speed 17 mph    
Visibility 7 miles    
Events Fog    
T = Trace of Precipitation, MM = Missing Value Source: NWS Daily Summary

Daily Weather History Graph

Daily Weather History Graph

Search for Another Location

Airport:

Trip Planner

Search our weather history database for the weather conditions in past years. The results will help you decide how hot, cold, wet, or windy it might be!

Date:

Astronomy

Nov. 29, 2012 Rise Set
Actual Time 7:59 AM CST 5:00 PM CST
Civil Twilight 7:26 AM CST 5:33 PM CST
Nautical Twilight 6:49 AM CST 6:10 PM CST
Astronomical Twilight 6:13 AM CST 6:46 PM CST
Moon 6:04 PM CST (11/29) 8:48 AM CST (11/29)
Length of Visible Light 10h 07m
Length of Day
9h 00m
Full, 99% of the Moon is Illuminated
Nov 29
Full
Dec 6
Last Quarter
Dec 13
New
Dec 19
First Quarter
Dec 28
Full

Hourly Weather History & Observations

Time (CST) Temp. Windchill Dew Point Humidity Pressure Visibility Wind Dir Wind Speed Gust Speed Precip Events Conditions
12:52 AM 16.0 °F 6.3 °F 14.0 °F 92% 30.06 in 10.0 mi North 6.9 mph - N/A   Clear
1:52 AM 19.0 °F 11.1 °F 17.1 °F 92% 30.05 in 10.0 mi NNW 5.8 mph - N/A   Clear
2:52 AM 21.9 °F 17.2 °F 19.9 °F 92% 30.04 in 10.0 mi Variable 3.5 mph - N/A   Clear
3:42 AM 21.2 °F 12.6 °F 17.6 °F 86% 29.98 in 10.0 mi Variable 6.9 mph - N/A   Scattered Clouds
3:52 AM 19.9 °F - 19.0 °F 96% 30.05 in 9.0 mi Calm Calm - N/A   Mostly Cloudy
4:05 AM 19.4 °F 12.8 °F 19.4 °F 100% 29.98 in 1.8 mi Variable 4.6 mph - N/A   Overcast
4:15 AM 19.4 °F 12.8 °F 19.4 °F 100% 29.98 in 0.5 mi SSE 4.6 mph - N/A Fog Light Freezing Fog
4:50 AM 21.2 °F 11.7 °F 19.4 °F 93% 29.97 in 1.2 mi ENE 8.1 mph - N/A   Overcast
4:52 AM 21.0 °F 10.6 °F 19.9 °F 96% 30.04 in 1.2 mi ENE 9.2 mph - N/A   Overcast
5:12 AM 21.2 °F 14.9 °F 19.4 °F 93% 29.98 in 2.5 mi NE 4.6 mph - N/A   Overcast
5:37 AM 19.4 °F 7.9 °F 19.4 °F 100% 29.97 in 3.0 mi East 10.4 mph - N/A   Overcast
5:45 AM 19.4 °F 7.9 °F 19.4 °F 100% 29.97 in 2.0 mi ENE 10.4 mph - N/A   Overcast
5:52 AM 19.9 °F 10.1 °F 19.0 °F 96% 30.06 in 2.5 mi ENE 8.1 mph - N/A   Overcast
6:02 AM 19.4 °F 8.6 °F 19.4 °F 100% 29.97 in 3.0 mi ENE 9.2 mph - N/A   Overcast
6:52 AM 19.9 °F 9.3 °F 18.0 °F 92% 30.06 in 4.0 mi East 9.2 mph - N/A   Overcast
7:52 AM 19.9 °F 11.1 °F 18.0 °F 92% 30.07 in 5.0 mi East 6.9 mph - N/A   Overcast
8:52 AM 18.0 °F 9.8 °F 16.0 °F 92% 30.06 in 6.0 mi East 5.8 mph - N/A   Overcast
9:11 AM 17.6 °F 9.3 °F 15.8 °F 93% 29.98 in 7.0 mi East 5.8 mph - N/A   Overcast
9:52 AM 18.0 °F 11.1 °F 16.0 °F 92% 30.08 in 6.0 mi East 4.6 mph - N/A   Overcast
10:52 AM 19.0 °F 6.1 °F 16.0 °F 88% 30.06 in 7.0 mi ENE 12.7 mph - N/A   Overcast
11:52 AM 19.9 °F 9.3 °F 18.0 °F 92% 30.05 in 8.0 mi ENE 9.2 mph - N/A   Overcast
12:52 PM 21.0 °F 12.4 °F 18.0 °F 88% 30.05 in 10.0 mi ENE 6.9 mph - N/A   Overcast
1:19 PM 21.2 °F 11.7 °F 19.4 °F 93% 29.96 in 10.0 mi ENE 8.1 mph - N/A   Overcast
1:52 PM 24.1 °F 14.4 °F 19.0 °F 81% 30.02 in 10.0 mi ENE 9.2 mph - N/A   Mostly Cloudy
2:52 PM 24.1 °F 15.2 °F 19.0 °F 81% 30.03 in 10.0 mi NE 8.1 mph - N/A   Overcast
3:27 PM 24.8 °F 15.3 °F 19.4 °F 80% 29.94 in 10.0 mi ENE 9.2 mph - N/A   Overcast
3:52 PM 24.1 °F 13.7 °F 19.0 °F 81% 30.02 in 10.0 mi East 10.4 mph - N/A   Overcast
4:12 PM 24.8 °F 16.1 °F 19.4 °F 80% 29.95 in 10.0 mi East 8.1 mph - N/A   Overcast
4:35 PM 24.8 °F 15.3 °F 19.4 °F 80% 29.95 in 9.0 mi East 9.2 mph - N/A   Scattered Clouds
4:52 PM 23.0 °F 13.9 °F 19.0 °F 85% 30.03 in 9.0 mi East 8.1 mph - N/A   Partly Cloudy
5:13 PM 23.0 °F 17.0 °F 19.4 °F 86% 29.96 in 10.0 mi ENE 4.6 mph - N/A   Mostly Cloudy
5:52 PM 23.0 °F - 19.0 °F 85% 30.06 in 9.0 mi Calm Calm - N/A   Overcast
6:52 PM 23.0 °F - 19.0 °F 85% 30.11 in 9.0 mi Calm Calm - N/A   Overcast
7:52 PM 23.0 °F 17.0 °F 19.0 °F 85% 30.12 in 9.0 mi NE 4.6 mph - N/A   Overcast
8:19 PM 21.2 °F 11.7 °F 17.6 °F 86% 30.03 in 8.0 mi ENE 8.1 mph - N/A   Overcast
8:52 PM 21.9 °F 11.0 °F 19.0 °F 89% 30.11 in 8.0 mi East 10.4 mph - N/A   Overcast
9:37 PM 21.2 °F 11.7 °F 19.4 °F 93% 30.02 in 6.0 mi East 8.1 mph - N/A   Overcast
9:52 PM 21.9 °F 14.5 °F 19.9 °F 92% 30.12 in 5.0 mi ESE 5.8 mph - N/A   Overcast
10:17 PM 21.2 °F 13.6 °F 19.4 °F 93% 30.04 in 4.0 mi SE 5.8 mph - N/A   Overcast
10:52 PM 21.0 °F 13.4 °F 21.0 °F 100% 30.13 in 4.0 mi SSE 5.8 mph - N/A   Overcast
11:52 PM 21.9 °F 13.4 °F 21.0 °F 96% 30.11 in 3.0 mi ESE 6.9 mph - N/A   Overcast